Year,Month,Day,Hour,Minute,Value (Times are PST for temperature in C)
2020,10,27,10,51,6.80
2020,10,27,10,52,6.80
2020,10,27,10,53,6.80
2020,10,27,10,54,6.80
2020,10,27,10,55,6.80
2020,10,27,10,56,6.80
2020,10,27,10,57,6.80
2020,10,27,10,58,6.80
2020,10,27,10,59,6.80
2020,10,27,11,00,6.80
2020,10,27,11,01,6.80
2020,10,27,11,02,6.80
2020,10,27,11,03,6.80
2020,10,27,11,04,6.80
2020,10,27,11,05,6.90
2020,10,27,11,06,6.90
2020,10,27,11,07,6.90
2020,10,27,11,08,6.90
2020,10,27,11,09,6.90
2020,10,27,11,10,6.90
2020,10,27,11,11,6.90
2020,10,27,11,12,6.90
2020,10,27,11,13,6.90
2020,10,27,11,14,6.90
2020,10,27,11,15,6.90
2020,10,27,11,16,6.90
2020,10,27,11,17,7.00
2020,10,27,11,18,7.00
2020,10,27,11,19,7.00
2020,10,27,11,20,7.00
2020,10,27,11,21,7.00
2020,10,27,11,22,7.10
2020,10,27,11,23,7.10
2020,10,27,11,24,7.10
2020,10,27,11,25,7.10
2020,10,27,11,26,7.10
2020,10,27,11,27,7.10
2020,10,27,11,28,7.20
2020,10,27,11,29,7.20
2020,10,27,11,30,7.20
2020,10,27,11,31,7.20
2020,10,27,11,32,7.20
2020,10,27,11,33,7.30
2020,10,27,11,34,7.30
2020,10,27,11,35,7.30
2020,10,27,11,36,7.30
2020,10,27,11,37,7.30
2020,10,27,11,38,7.30
2020,10,27,11,39,7.30
2020,10,27,11,40,7.30
2020,10,27,11,41,7.30
2020,10,27,11,42,7.30
2020,10,27,11,43,7.30
2020,10,27,11,44,7.30
2020,10,27,11,45,7.30
2020,10,27,11,46,7.30
2020,10,27,11,47,7.40
2020,10,27,11,48,7.40
2020,10,27,11,49,7.40
2020,10,27,11,50,7.40
2020,10,27,11,51,7.40
2020,10,27,11,52,7.40
2020,10,27,11,53,7.40
2020,10,27,11,54,7.40
2020,10,27,11,55,7.40
2020,10,27,11,56,7.40
2020,10,27,11,57,7.40
2020,10,27,11,58,7.40
2020,10,27,11,59,7.40
2020,10,27,12,00,7.50
2020,10,27,12,01,7.40
2020,10,27,12,02,7.40
2020,10,27,12,03,7.50
2020,10,27,12,04,7.50
2020,10,27,12,05,7.50
2020,10,27,12,06,7.50
2020,10,27,12,07,7.50
2020,10,27,12,08,7.60
2020,10,27,12,09,7.60
2020,10,27,12,10,7.60
2020,10,27,12,11,7.60
2020,10,27,12,12,7.60
2020,10,27,12,13,7.60
2020,10,27,12,14,7.60
2020,10,27,12,15,7.60
2020,10,27,12,16,7.60
2020,10,27,12,17,7.60
2020,10,27,12,18,7.60
2020,10,27,12,19,7.60
2020,10,27,12,20,7.60
2020,10,27,12,21,7.60
2020,10,27,12,22,7.60
2020,10,27,12,23,7.60
2020,10,27,12,24,7.60
2020,10,27,12,25,7.60
2020,10,27,12,26,7.70
2020,10,27,12,27,7.70
2020,10,27,12,28,7.70
2020,10,27,12,29,7.70
2020,10,27,12,30,7.70
2020,10,27,12,31,7.70
2020,10,27,12,32,7.70
2020,10,27,12,33,7.70
2020,10,27,12,34,7.70
2020,10,27,12,35,7.70
2020,10,27,12,36,7.80
2020,10,27,12,37,7.80
2020,10,27,12,38,7.80
2020,10,27,12,39,7.80
2020,10,27,12,40,7.90
2020,10,27,12,41,7.90
2020,10,27,12,42,7.90
2020,10,27,12,43,7.90
2020,10,27,12,44,7.90
2020,10,27,12,45,7.90
2020,10,27,12,46,7.90
2020,10,27,12,47,7.90
2020,10,27,12,48,7.90
2020,10,27,12,49,7.90
2020,10,27,12,50,7.90
2020,10,27,12,51,7.90
2020,10,27,12,52,8.00
2020,10,27,12,53,8.00
2020,10,27,12,54,8.00
2020,10,27,12,55,8.00
2020,10,27,12,56,8.00
2020,10,27,12,57,8.00
2020,10,27,12,58,8.00
2020,10,27,12,59,8.00
2020,10,27,13,00,8.00
2020,10,27,13,01,8.00
2020,10,27,13,02,8.00
2020,10,27,13,03,8.00
2020,10,27,13,04,8.00
2020,10,27,13,05,8.00
2020,10,27,13,06,8.00
2020,10,27,13,07,8.00
2020,10,27,13,08,8.00
2020,10,27,13,09,8.00
2020,10,27,13,10,8.10
2020,10,27,13,11,8.00
2020,10,27,13,12,8.00
2020,10,27,13,13,8.00
2020,10,27,13,14,8.10
2020,10,27,13,15,8.10
2020,10,27,13,16,8.10
2020,10,27,13,17,8.10
2020,10,27,13,18,8.10
2020,10,27,13,19,8.10
2020,10,27,13,20,8.20
2020,10,27,13,21,8.20
2020,10,27,13,22,8.20
2020,10,27,13,23,8.20
2020,10,27,13,24,8.20
2020,10,27,13,25,8.20
2020,10,27,13,26,8.20
2020,10,27,13,27,8.20
2020,10,27,13,28,8.20
2020,10,27,13,29,8.20
2020,10,27,13,30,8.20
2020,10,27,13,31,8.20
2020,10,27,13,32,8.20
2020,10,27,13,33,8.20
2020,10,27,13,34,8.20
2020,10,27,13,35,8.30
2020,10,27,13,36,8.30
2020,10,27,13,37,8.30
2020,10,27,13,38,8.30
2020,10,27,13,39,8.40
2020,10,27,13,40,8.40
2020,10,27,13,41,8.50
2020,10,27,13,42,8.50
2020,10,27,13,43,8.50
2020,10,27,13,44,8.50
2020,10,27,13,45,8.50
2020,10,27,13,46,8.50
2020,10,27,13,47,8.50
2020,10,27,13,48,8.50
2020,10,27,13,49,8.40
2020,10,27,13,50,8.40
2020,10,27,13,51,8.40
2020,10,27,13,52,8.40
2020,10,27,13,53,8.40
2020,10,27,13,54,8.40
2020,10,27,13,55,8.30
2020,10,27,13,56,8.30
2020,10,27,13,57,8.30
2020,10,27,13,58,8.30
2020,10,27,13,59,8.20
2020,10,27,14,00,8.20
2020,10,27,14,01,8.20
2020,10,27,14,02,8.20
2020,10,27,14,03,8.20
2020,10,27,14,04,8.10
2020,10,27,14,05,8.10
2020,10,27,14,06,8.10
2020,10,27,14,07,8.10
2020,10,27,14,08,8.10
2020,10,27,14,09,8.10
2020,10,27,14,10,8.00
2020,10,27,14,11,8.00
2020,10,27,14,12,8.00
2020,10,27,14,13,8.00
2020,10,27,14,14,8.00
2020,10,27,14,15,8.00
2020,10,27,14,16,8.00
2020,10,27,14,17,8.00
2020,10,27,14,18,8.00
2020,10,27,14,19,8.00
2020,10,27,14,20,8.10
2020,10,27,14,21,8.10
2020,10,27,14,22,8.10
2020,10,27,14,23,8.10
2020,10,27,14,24,8.10
2020,10,27,14,25,8.10
2020,10,27,14,26,8.10
2020,10,27,14,27,8.10
2020,10,27,14,28,8.10
2020,10,27,14,29,8.10
2020,10,27,14,30,8.10
2020,10,27,14,31,8.10
2020,10,27,14,32,8.10
2020,10,27,14,33,8.10
2020,10,27,14,34,8.10
2020,10,27,14,35,8.10
2020,10,27,14,36,8.10
2020,10,27,14,37,8.10
2020,10,27,14,38,8.10
2020,10,27,14,39,8.10
2020,10,27,14,40,8.10
2020,10,27,14,41,8.10
2020,10,27,14,42,8.10
2020,10,27,14,43,8.10
2020,10,27,14,44,8.10
2020,10,27,14,45,8.10
2020,10,27,14,46,8.10
2020,10,27,14,47,8.10
2020,10,27,14,48,8.10
2020,10,27,14,49,8.10
2020,10,27,14,50,8.10
2020,10,27,14,51,8.10
2020,10,27,14,52,8.10
2020,10,27,14,53,8.10
2020,10,27,14,54,8.10
2020,10,27,14,55,8.10
2020,10,27,14,56,8.10
2020,10,27,14,57,8.10
2020,10,27,14,58,8.10
2020,10,27,14,59,8.10
2020,10,27,15,00,8.10
2020,10,27,15,01,8.10
2020,10,27,15,02,8.10
2020,10,27,15,03,8.10
2020,10,27,15,04,8.10
2020,10,27,15,05,8.10
2020,10,27,15,06,8.10
2020,10,27,15,07,8.10
2020,10,27,15,08,8.10
2020,10,27,15,09,8.10
2020,10,27,15,10,8.10
2020,10,27,15,11,8.10
2020,10,27,15,12,8.10
2020,10,27,15,13,8.10
2020,10,27,15,14,8.10
2020,10,27,15,15,8.10
2020,10,27,15,16,8.10
2020,10,27,15,17,8.10
2020,10,27,15,18,8.10
2020,10,27,15,19,8.10
2020,10,27,15,20,8.10
2020,10,27,15,21,8.10
2020,10,27,15,22,8.10
2020,10,27,15,23,8.10
2020,10,27,15,24,8.10
2020,10,27,15,25,8.10
2020,10,27,15,26,8.10
2020,10,27,15,27,8.10
2020,10,27,15,28,8.10
2020,10,27,15,29,8.10
2020,10,27,15,30,8.10
2020,10,27,15,31,8.10
2020,10,27,15,32,8.10
2020,10,27,15,33,8.10
2020,10,27,15,34,8.10
2020,10,27,15,35,8.10
2020,10,27,15,36,8.10
2020,10,27,15,37,8.10
2020,10,27,15,38,8.10
2020,10,27,15,39,8.10
2020,10,27,15,40,8.10
2020,10,27,15,41,8.10
2020,10,27,15,42,8.10
2020,10,27,15,43,8.10
2020,10,27,15,44,8.00
2020,10,27,15,45,8.00
2020,10,27,15,46,8.00
2020,10,27,15,47,8.00
2020,10,27,15,48,8.00
2020,10,27,15,49,7.90
2020,10,27,15,50,7.90
2020,10,27,15,51,7.90
2020,10,27,15,52,7.90
2020,10,27,15,53,7.90
2020,10,27,15,54,7.90
2020,10,27,15,55,7.90
2020,10,27,15,56,7.90
2020,10,27,15,57,7.90
2020,10,27,15,58,7.90
2020,10,27,15,59,7.90
2020,10,27,16,00,7.90
2020,10,27,16,01,7.90
2020,10,27,16,02,7.90
2020,10,27,16,03,7.90
2020,10,27,16,04,7.90
2020,10,27,16,05,7.90
2020,10,27,16,06,7.90
2020,10,27,16,07,7.90
2020,10,27,16,08,7.90
2020,10,27,16,09,7.90
2020,10,27,16,10,7.90
2020,10,27,16,11,7.90
2020,10,27,16,12,7.90
2020,10,27,16,13,7.90
2020,10,27,16,14,7.90
2020,10,27,16,15,7.90
2020,10,27,16,16,7.90
2020,10,27,16,17,7.90
2020,10,27,16,18,7.90
2020,10,27,16,19,7.90
2020,10,27,16,20,7.90
2020,10,27,16,21,7.90
2020,10,27,16,22,7.90
2020,10,27,16,23,7.90
2020,10,27,16,24,7.90
2020,10,27,16,25,7.90
2020,10,27,16,26,7.90
2020,10,27,16,27,7.90
2020,10,27,16,28,7.90
2020,10,27,16,29,7.90
2020,10,27,16,30,7.90
2020,10,27,16,31,7.90
2020,10,27,16,32,7.90
2020,10,27,16,33,7.90
2020,10,27,16,34,7.90
2020,10,27,16,35,7.90
2020,10,27,16,36,7.90
2020,10,27,16,37,7.90
2020,10,27,16,38,7.90
2020,10,27,16,39,7.90
2020,10,27,16,40,7.90
2020,10,27,16,41,7.90
2020,10,27,16,42,7.90
2020,10,27,16,43,7.90
2020,10,27,16,44,7.90
2020,10,27,16,45,7.90
2020,10,27,16,46,8.00
2020,10,27,16,47,8.00
2020,10,27,16,48,8.00
2020,10,27,16,49,8.00
2020,10,27,16,50,8.00
2020,10,27,16,51,8.00
2020,10,27,16,52,8.00
2020,10,27,16,53,8.00
2020,10,27,16,54,8.00
2020,10,27,16,55,8.00
2020,10,27,16,56,8.00
2020,10,27,16,57,8.00
2020,10,27,16,58,8.00
2020,10,27,16,59,8.00
2020,10,27,17,00,8.00
2020,10,27,17,01,8.00
2020,10,27,17,02,8.00
2020,10,27,17,03,8.00
2020,10,27,17,04,8.00
2020,10,27,17,05,8.00
2020,10,27,17,06,7.90
2020,10,27,17,07,7.90
2020,10,27,17,08,7.90
2020,10,27,17,09,7.90
2020,10,27,17,10,7.90
2020,10,27,17,11,7.90
2020,10,27,17,12,7.90
2020,10,27,17,13,7.90
2020,10,27,17,14,7.90
2020,10,27,17,15,7.90
2020,10,27,17,16,7.90
2020,10,27,17,17,7.90
2020,10,27,17,18,7.90
2020,10,27,17,19,7.90
2020,10,27,17,20,7.90
2020,10,27,17,21,7.90
2020,10,27,17,22,7.90
2020,10,27,17,23,7.90
2020,10,27,17,24,7.90
2020,10,27,17,25,7.90
2020,10,27,17,26,7.90
2020,10,27,17,27,7.90
2020,10,27,17,28,7.90
2020,10,27,17,29,7.90
2020,10,27,17,30,7.90
2020,10,27,17,31,7.90
2020,10,27,17,32,7.90
2020,10,27,17,33,7.90
2020,10,27,17,34,7.90
2020,10,27,17,35,7.90
2020,10,27,17,36,7.90
2020,10,27,17,37,7.90
2020,10,27,17,38,7.90
2020,10,27,17,39,7.90
2020,10,27,17,40,7.90
2020,10,27,17,41,7.90
2020,10,27,17,42,7.90
2020,10,27,17,43,7.90
2020,10,27,17,44,7.90
2020,10,27,17,45,7.90
2020,10,27,17,46,7.90
2020,10,27,17,47,7.90
2020,10,27,17,48,7.90
2020,10,27,17,49,7.90
2020,10,27,17,50,7.90
2020,10,27,17,51,7.90
2020,10,27,17,52,7.90
2020,10,27,17,53,7.90
2020,10,27,17,54,7.90
2020,10,27,17,55,7.90
2020,10,27,17,56,7.90
2020,10,27,17,57,7.90
2020,10,27,17,58,7.90
2020,10,27,17,59,7.90
2020,10,27,18,00,7.90
2020,10,27,18,01,7.90
2020,10,27,18,02,7.90
2020,10,27,18,03,7.90
2020,10,27,18,04,7.90
2020,10,27,18,05,7.90
2020,10,27,18,06,7.90
2020,10,27,18,07,7.90
2020,10,27,18,08,7.90
2020,10,27,18,09,7.90
2020,10,27,18,10,7.90
2020,10,27,18,11,7.90
2020,10,27,18,12,7.90
2020,10,27,18,13,7.90
2020,10,27,18,14,7.90
2020,10,27,18,15,7.90
2020,10,27,18,16,7.90
2020,10,27,18,17,7.90
2020,10,27,18,18,7.90
2020,10,27,18,19,7.90
2020,10,27,18,20,7.90
2020,10,27,18,21,7.90
2020,10,27,18,22,7.90
2020,10,27,18,23,7.90
2020,10,27,18,24,7.90
2020,10,27,18,25,7.90
2020,10,27,18,26,7.90
2020,10,27,18,27,7.90
2020,10,27,18,28,7.90
2020,10,27,18,29,7.90
2020,10,27,18,30,7.90
2020,10,27,18,31,7.90
2020,10,27,18,32,7.90
2020,10,27,18,33,7.90
2020,10,27,18,34,7.90
2020,10,27,18,35,7.90
2020,10,27,18,36,7.90
2020,10,27,18,37,7.90
2020,10,27,18,38,7.90
2020,10,27,18,39,7.90
2020,10,27,18,40,7.90
2020,10,27,18,41,7.90
2020,10,27,18,42,7.90
2020,10,27,18,43,7.90
2020,10,27,18,44,7.90
2020,10,27,18,45,7.90
2020,10,27,18,46,7.90
2020,10,27,18,47,7.90
2020,10,27,18,48,7.90
2020,10,27,18,49,7.90
2020,10,27,18,50,7.90
2020,10,27,18,51,7.90
2020,10,27,18,52,7.90
2020,10,27,18,53,7.90
2020,10,27,18,54,7.90
2020,10,27,18,55,7.90
2020,10,27,18,56,7.90
2020,10,27,18,57,7.90
2020,10,27,18,58,7.90
2020,10,27,18,59,7.90
2020,10,27,19,00,7.90
2020,10,27,19,01,7.90
2020,10,27,19,02,7.90
2020,10,27,19,03,7.90
2020,10,27,19,04,7.90
2020,10,27,19,05,7.90
2020,10,27,19,06,7.90
2020,10,27,19,07,7.90
2020,10,27,19,08,7.90
2020,10,27,19,09,7.90
2020,10,27,19,10,7.90
2020,10,27,19,11,7.90
2020,10,27,19,12,7.90
2020,10,27,19,13,7.90
2020,10,27,19,14,7.90
2020,10,27,19,15,7.90
2020,10,27,19,16,7.90
2020,10,27,19,17,7.90
2020,10,27,19,18,7.90
2020,10,27,19,19,7.90
2020,10,27,19,20,7.90
2020,10,27,19,21,7.90
2020,10,27,19,22,7.90
2020,10,27,19,23,7.90
2020,10,27,19,24,7.90
2020,10,27,19,25,8.00
2020,10,27,19,26,8.00
2020,10,27,19,27,8.00
2020,10,27,19,28,8.00
2020,10,27,19,29,8.00
2020,10,27,19,30,8.00
2020,10,27,19,31,8.00
2020,10,27,19,32,8.00
2020,10,27,19,33,8.00
2020,10,27,19,34,8.00
2020,10,27,19,35,8.00
2020,10,27,19,36,8.00
2020,10,27,19,37,8.00
2020,10,27,19,38,8.00
2020,10,27,19,39,8.00
2020,10,27,19,40,8.00
2020,10,27,19,41,8.00
2020,10,27,19,42,8.00
2020,10,27,19,43,8.00
2020,10,27,19,44,8.00
2020,10,27,19,45,8.00
2020,10,27,19,46,8.00
2020,10,27,19,47,8.00
2020,10,27,19,48,8.00
2020,10,27,19,49,8.00
2020,10,27,19,50,8.00
2020,10,27,19,51,8.00
2020,10,27,19,52,8.00
2020,10,27,19,53,8.00
2020,10,27,19,54,8.10
2020,10,27,19,55,8.10
2020,10,27,19,56,8.10
2020,10,27,19,57,8.10
2020,10,27,19,58,8.10
2020,10,27,19,59,8.10
2020,10,27,20,00,8.10
2020,10,27,20,01,8.10
2020,10,27,20,02,8.10
2020,10,27,20,03,8.10
2020,10,27,20,04,8.10
2020,10,27,20,05,8.10
2020,10,27,20,06,8.10
2020,10,27,20,07,8.10
2020,10,27,20,08,8.10
2020,10,27,20,09,8.10
2020,10,27,20,10,8.10
2020,10,27,20,11,8.10
2020,10,27,20,12,8.10
2020,10,27,20,13,8.10
2020,10,27,20,14,8.10
2020,10,27,20,15,8.10
2020,10,27,20,16,8.10
2020,10,27,20,17,8.10
2020,10,27,20,18,8.10
2020,10,27,20,19,8.10
2020,10,27,20,20,8.10
2020,10,27,20,21,8.10
2020,10,27,20,22,8.10
2020,10,27,20,23,8.10
2020,10,27,20,24,8.10
2020,10,27,20,25,8.10
2020,10,27,20,26,8.10
2020,10,27,20,27,8.10
2020,10,27,20,28,8.10
2020,10,27,20,29,8.10
2020,10,27,20,30,8.10
2020,10,27,20,31,8.10
2020,10,27,20,32,8.10
2020,10,27,20,33,8.10
2020,10,27,20,34,8.10
2020,10,27,20,35,8.10
2020,10,27,20,36,8.10
2020,10,27,20,37,8.10
2020,10,27,20,38,8.10
2020,10,27,20,39,8.10
2020,10,27,20,40,8.10
2020,10,27,20,41,8.10
2020,10,27,20,42,8.10
2020,10,27,20,43,8.10
2020,10,27,20,44,8.10
2020,10,27,20,45,8.10
2020,10,27,20,46,8.10
2020,10,27,20,47,8.10
2020,10,27,20,48,8.10
2020,10,27,20,49,8.10
2020,10,27,20,50,8.10
2020,10,27,20,51,8.10
2020,10,27,20,52,8.10
2020,10,27,20,53,8.10
2020,10,27,20,54,8.10
2020,10,27,20,55,8.10
2020,10,27,20,56,8.10
2020,10,27,20,57,8.10
2020,10,27,20,58,8.10
2020,10,27,20,59,8.20
2020,10,27,21,00,8.20
2020,10,27,21,01,8.20
2020,10,27,21,02,8.20
2020,10,27,21,03,8.20
2020,10,27,21,04,8.20
2020,10,27,21,05,8.20
2020,10,27,21,06,8.20
2020,10,27,21,07,8.20
2020,10,27,21,08,8.20
2020,10,27,21,09,8.20
2020,10,27,21,10,8.20
2020,10,27,21,11,8.20
2020,10,27,21,12,8.20
2020,10,27,21,13,8.20
2020,10,27,21,14,8.20
2020,10,27,21,15,8.20
2020,10,27,21,16,8.20
2020,10,27,21,17,8.20
2020,10,27,21,18,8.20
2020,10,27,21,19,8.20
2020,10,27,21,20,8.20
2020,10,27,21,21,8.20
2020,10,27,21,22,8.20
2020,10,27,21,23,8.20
2020,10,27,21,24,8.20
2020,10,27,21,25,8.20
2020,10,27,21,26,8.20
2020,10,27,21,27,8.20
2020,10,27,21,28,8.20
2020,10,27,21,29,8.20
2020,10,27,21,30,8.20
2020,10,27,21,31,8.20
2020,10,27,21,32,8.20
2020,10,27,21,33,8.20
2020,10,27,21,34,8.20
2020,10,27,21,35,8.20
2020,10,27,21,36,8.20
2020,10,27,21,37,8.20
2020,10,27,21,38,8.20
2020,10,27,21,39,8.20
2020,10,27,21,40,8.30
2020,10,27,21,41,8.20
2020,10,27,21,42,8.30
2020,10,27,21,43,8.30
2020,10,27,21,44,8.30
2020,10,27,21,45,8.30
2020,10,27,21,46,8.30
2020,10,27,21,47,8.30
2020,10,27,21,48,8.30
2020,10,27,21,49,8.30
2020,10,27,21,50,8.30
2020,10,27,21,51,8.30
2020,10,27,21,52,8.30
2020,10,27,21,53,8.30
2020,10,27,21,54,8.30
2020,10,27,21,55,8.30
2020,10,27,21,56,8.30
2020,10,27,21,57,8.30
2020,10,27,21,58,8.30
2020,10,27,21,59,8.30
2020,10,27,22,00,8.30
2020,10,27,22,01,8.30
2020,10,27,22,02,8.30
2020,10,27,22,03,8.30
2020,10,27,22,04,8.30
2020,10,27,22,05,8.30
2020,10,27,22,06,8.30
2020,10,27,22,07,8.30
2020,10,27,22,08,8.30
2020,10,27,22,09,8.30
2020,10,27,22,10,8.40
2020,10,27,22,11,8.40
2020,10,27,22,12,8.40
2020,10,27,22,13,8.40
2020,10,27,22,14,8.40
2020,10,27,22,15,8.40
2020,10,27,22,16,8.40
2020,10,27,22,17,8.40
2020,10,27,22,18,8.40
2020,10,27,22,19,8.40
2020,10,27,22,20,8.40
2020,10,27,22,21,8.40
2020,10,27,22,22,8.40
2020,10,27,22,23,8.40
2020,10,27,22,24,8.40
2020,10,27,22,25,8.40
2020,10,27,22,26,8.40
2020,10,27,22,27,8.40
2020,10,27,22,28,8.40
2020,10,27,22,29,8.40
2020,10,27,22,30,8.40
2020,10,27,22,31,8.40
2020,10,27,22,32,8.40
2020,10,27,22,33,8.40
2020,10,27,22,34,8.40
2020,10,27,22,35,8.40
2020,10,27,22,36,8.40
2020,10,27,22,37,8.40
2020,10,27,22,38,8.40
2020,10,27,22,39,8.40
2020,10,27,22,40,8.40
2020,10,27,22,41,8.40
2020,10,27,22,42,8.40
2020,10,27,22,43,8.40
2020,10,27,22,44,8.40
2020,10,27,22,45,8.40
2020,10,27,22,46,8.40
2020,10,27,22,47,8.40
2020,10,27,22,48,8.50
2020,10,27,22,49,8.50
2020,10,27,22,50,8.50
2020,10,27,22,51,8.50
2020,10,27,22,52,8.40
2020,10,27,22,53,8.50
2020,10,27,22,54,8.40
2020,10,27,22,55,8.50
2020,10,27,22,56,8.50
2020,10,27,22,57,8.50
2020,10,27,22,58,8.50
2020,10,27,22,59,8.50
2020,10,27,23,00,8.40
2020,10,27,23,01,8.40
2020,10,27,23,02,8.40
2020,10,27,23,03,8.40
2020,10,27,23,04,8.40
2020,10,27,23,05,8.40
2020,10,27,23,06,8.40
2020,10,27,23,07,8.40
2020,10,27,23,08,8.40
2020,10,27,23,09,8.40
2020,10,27,23,10,8.40
2020,10,27,23,11,8.40
2020,10,27,23,12,8.40
2020,10,27,23,13,8.40
2020,10,27,23,14,8.40
2020,10,27,23,15,8.40
2020,10,27,23,16,8.40
2020,10,27,23,17,8.40
2020,10,27,23,18,8.40
2020,10,27,23,19,8.40
2020,10,27,23,20,8.40
2020,10,27,23,21,8.40
2020,10,27,23,22,8.40
2020,10,27,23,23,8.40
2020,10,27,23,24,8.40
2020,10,27,23,25,8.40
2020,10,27,23,26,8.40
2020,10,27,23,27,8.40
2020,10,27,23,28,8.40
2020,10,27,23,29,8.40
2020,10,27,23,30,8.40
2020,10,27,23,31,8.40
2020,10,27,23,32,8.40
2020,10,27,23,33,8.40
2020,10,27,23,34,8.40
2020,10,27,23,35,8.40
2020,10,27,23,36,8.40
2020,10,27,23,37,8.40
2020,10,27,23,38,8.40
2020,10,27,23,39,8.40
2020,10,27,23,40,8.40
2020,10,27,23,41,8.40
2020,10,27,23,42,8.40
2020,10,27,23,43,8.40
2020,10,27,23,44,8.40
2020,10,27,23,45,8.40
2020,10,27,23,46,8.40
2020,10,27,23,47,8.40
2020,10,27,23,48,8.40
2020,10,27,23,49,8.50
2020,10,27,23,50,8.50
2020,10,27,23,51,8.50
2020,10,27,23,52,8.50
2020,10,27,23,53,8.50
2020,10,27,23,54,8.50
2020,10,27,23,55,8.50
2020,10,27,23,56,8.50
2020,10,27,23,57,8.50
2020,10,27,23,58,8.50
2020,10,27,23,59,8.50
